FW6045 Weather Reports


Display with metric or nautical units.
time (UTC)temp
F
wind
direction
speed
MPH
gust
MPH
rain 1hr
in
rain 24hr
in
rain mn
in
humidity
%
barometer
mb
20260509174600 68 288 9.0 14.0 0.00 0.05 0.05 62 1008.5
20260509173102 68 251 7.0 17.0 0.00 0.05 0.05 63 1008.4
20260509171559 67 240 6.0 21.0 0.00 0.05 0.05 63 1008.5
20260509170107 66 236 9.0 20.0 0.00 0.05 0.05 66 1008.5
20260509164557 66 184 7.0 12.0 0.00 0.05 0.05 66 1008.5
20260509163104 65 255 6.0 15.0 0.00 0.05 0.05 67 1008.5
20260509161559 65 210 8.0 17.0 0.00 0.05 0.05 69 1008.5
20260509160058 65 180 4.0 14.0 0.00 0.05 0.05 69 1008.6
20260509154608 64 172 6.0 11.0 0.00 0.05 0.05 73 1008.4
20260509153100 63 211 5.0 11.0 0.00 0.05 0.05 75 1008.3
20260509151608 62 238 7.0 11.0 0.00 0.05 0.05 77 1008.3
20260509150110 61 185 5.0 11.0 0.00 0.05 0.05 83 1008.2
20260509144602 60 146 7.0 12.0 0.00 0.05 0.05 84 1008.1
20260509143105 58 144 9.0 16.0 0.00 0.05 0.05 87 1008.1
20260509141558 57 135 8.0 13.0 0.00 0.05 0.05 93 1008.1
20260509140105 56 150 7.0 11.0 0.00 0.05 0.05 97 1008.1
20260509134558 54 140 7.0 10.0 0.00 0.05 0.05 97 1008.1
20260509133106 55 149 4.0 10.0 0.00 0.05 0.05 97 1008.1
20260509131556 54 131 4.0 8.0 0.00 0.05 0.05 97 1007.9
20260509130058 54 49 2.0 5.0 0.00 0.05 0.05 97 1007.8
20260509124601 54 129 4.0 8.0 0.00 0.05 0.05 97 1008.0
20260509123105 54 136 5.0 9.0 0.00 0.05 0.05 97 1008.0
20260509121602 53 127 4.0 8.0 0.00 0.05 0.05 97 1007.9
20260509120107 53 106 3.0 8.0 0.00 0.05 0.05 97 1007.9
20260509114606 53 115 5.0 8.0 0.00 0.05 0.05 97 1007.9
20260509113109 53 105 4.0 8.0 0.00 0.05 0.05 97 1007.7
20260509111558 53 116 5.0 8.0 0.01 0.05 0.05 97 1007.7
20260509104559 53 123 6.0 8.0 0.01 0.05 0.05 96 1007.6
20260509103058 53 86 5.0 8.0 0.01 0.05 0.05 96 1007.5
20260509101558 53 90 6.0 8.0 0.01 0.04 0.04 96 1007.7
20260509100106 53 105 3.0 6.0 0.01 0.04 0.04 96 1007.8
20260509094606 53 71 3.0 5.0 0.01 0.04 0.04 96 1007.8
20260509093058 53 74 2.0 4.0 0.01 0.04 0.04 95 1008.1
20260509091602 53 0 0.0 0.0 0.01 0.03 0.03 95 1008.2
20260509090120 53 0 0.0 4.0 0.01 0.03 0.03 95 1008.2
20260509084605 53 82 4.0 9.0 0.02 0.03 0.03 94 1007.9
20260509083058 54 78 4.0 8.0 0.03 0.03 0.03 94 1008.1
20260509081559 54 97 4.0 7.0 0.02 0.02 0.02 93 1008.3
20260509080111 54 80 2.0 7.0 0.02 0.02 0.02 92 1008.7
20260509074603 54 83 2.0 5.0 0.01 0.01 0.01 91 1008.7
20260509073113 54 65 2.0 5.0 0.00 0.00 0.00 90 1008.9
20260509071602 55 44 3.0 7.0 0.00 0.00 0.00 89 1008.8
20260509070059 55 54 3.0 8.0 0.00 0.00 0.00 89 1008.7
20260509064558 55 63 2.0 5.0 0.00 0.00 0.00 88 1008.5
20260509063121 55 28 3.0 8.0 0.00 0.00 0.00 87 1008.9
20260509061601 55 57 4.0 6.0 0.00 0.00 0.00 86 1008.6
20260509060057 56 43 3.0 6.0 0.00 0.00 0.00 85 1009.0
20260509054559 56 32 4.0 8.0 0.00 0.00 0.00 84 1009.1
20260509053059 56 43 3.0 6.0 0.00 0.00 0.00 84 1008.9
20260509051602 56 66 3.0 10.0 0.00 0.00 0.00 83 1008.9
20260509050101 57 26 6.0 10.0 0.00 0.00 0.00 82 1008.9
20260509044604 57 15 5.0 10.0 0.00 0.00 0.00 80 1008.7
20260509043103 57 35 7.0 11.0 0.00 0.00 0.00 79 1008.6
20260509041600 58 19 5.0 10.0 0.00 0.00 0.00 77 1008.6
20260509034606 60 5 5.0 11.0 0.00 0.00 0.00 69 1008.7
20260509033110 61 360 6.0 14.0 0.00 0.00 0.00 64 1009.0
20260509031606 63 246 4.0 10.0 0.00 0.00 0.00 55 1008.9
20260509024605 64 221 5.0 9.0 0.00 0.00 0.00 54 1009.2
20260509023059 64 214 6.0 12.0 0.00 0.00 0.00 54 1009.1
20260509021558 64 207 7.0 11.0 0.00 0.00 0.00 55 1009.1
20260509020057 64 198 8.0 14.0 0.00 0.00 0.00 54 1009.0
20260509014558 65 209 7.0 10.0 0.00 0.00 0.00 53 1009.0
20260509013111 65 193 7.0 11.0 0.00 0.00 0.00 52 1008.9
20260509011606 65 204 7.0 12.0 0.00 0.00 0.00 51 1009.0
20260509010110 66 202 7.0 12.0 0.00 0.00 0.00 51 1008.9
20260509004604 66 222 7.0 12.0 0.00 0.00 0.00 50 1009.0
20260509003058 66 221 7.0 11.0 0.00 0.00 0.00 49 1008.9
20260509001556 67 206 7.0 13.0 0.00 0.00 0.00 49 1008.8
20260509000057 67 218 6.0 13.0 0.00 0.00 0.00 49 1008.9
20260508234558 67 209 8.0 12.0 0.00 0.00 0.00 49 1008.9
20260508233102 67 197 8.0 14.0 0.00 0.00 0.00 48 1009.0
20260508231600 67 213 5.0 10.0 0.00 0.00 0.00 49 1008.9
20260508230055 68 213 7.0 11.0 0.00 0.00 0.00 48 1009.0
20260508224612 68 225 7.0 12.0 0.00 0.00 0.00 48 1008.9
20260508223055 68 214 10.0 20.0 0.00 0.00 0.00 47 1008.9
20260508221609 69 186 8.0 18.0 0.00 0.00 0.00 44 1008.8
20260508220055 68 207 10.0 19.0 0.00 0.00 0.00 43 1008.6
20260508214557 69 195 9.0 18.0 0.00 0.00 0.00 45 1008.6
20260508213055 69 188 9.0 19.0 0.00 0.00 0.00 44 1008.9
20260508211602 69 234 11.0 25.0 0.00 0.00 0.00 44 1008.8
20260508210110 70 219 10.0 23.0 0.00 0.00 0.00 42 1009.0
20260508204558 70 260 13.0 23.0 0.00 0.00 0.00 43 1009.1
20260508203102 70 225 11.0 24.0 0.00 0.00 0.00 43 1009.2
20260508201604 69 217 11.0 27.0 0.00 0.00 0.00 43 1009.8
20260508200110 70 237 11.0 27.0 0.00 0.00 0.00 43 1009.9
20260508194603 69 190 12.0 18.0 0.00 0.00 0.00 44 1010.3
20260508193105 69 209 10.0 24.0 0.00 0.00 0.00 44 1010.4
20260508191559 69 244 11.0 24.0 0.00 0.00 0.00 44 1010.6
20260508190057 68 202 12.0 19.0 0.00 0.00 0.00 44 1010.6
20260508184601 69 228 8.0 23.0 0.00 0.00 0.00 43 1010.6
20260508183137 68 206 11.0 24.0 0.00 0.00 0.00 43 1010.9
20260508181611 68 204 11.0 24.0 0.00 0.00 0.00 44 1011.1
20260508180107 68 221 15.0 22.0 0.00 0.00 0.00 43 1011.5